• In Österreich
  • Länderverzeichnis
  • Für 7 Tage
  • Wassertemperatur
  • Satellitenkarten
  • Wetterkarte
  • News
  • Widgets
  • user-avatar
    Anmelden

    Stündliche Wetter Silistra

    Heute, 13 Dezember, Mittwoch

    Zeit Temperatur Niederschläge Wind Luftdruck Luftfeuchtigkeit
    00:00 +8°C° 0 mm 3 m/S 757 mmHg 68%
    01:00 +8°C° 0 mm 3 m/S 757 mmHg 69%
    02:00 +7°C° 0 mm 4 m/S 758 mmHg 71%
    03:00 +7°C° 0 mm 4 m/S 758 mmHg 73%
    04:00 +7°C° 0 mm 4 m/S 757 mmHg 74%
    05:00 +7°C° 0 mm 4 m/S 757 mmHg 76%
    06:00 +7°C° 0 mm 4 m/S 757 mmHg 77%
    07:00 +7°C° 0 mm 4 m/S 757 mmHg 78%
    08:00 +7°C° 0 mm 4 m/S 758 mmHg 79%
    09:00 +8°C° 0 mm 4 m/S 758 mmHg 73%
    10:00 +11°C° 0 mm 4 m/S 758 mmHg 67%
    11:00 +13°C° 0 mm 5 m/S 758 mmHg 61%
    12:00 +13°C° 0 mm 4 m/S 757 mmHg 59%
    13:00 +14°C° 0 mm 4 m/S 757 mmHg 57%
    14:00 +15°C° 0 mm 4 m/S 757 mmHg 55%
    15:00 +14°C° 0 mm 3 m/S 757 mmHg 60%
    16:00 +12°C° 0 mm 3 m/S 756 mmHg 65%
    17:00 +12°C° 0 mm 2 m/S 756 mmHg 70%
    18:00 +12°C° 0 mm 2 m/S 756 mmHg 71%
    19:00 +12°C° 0 mm 2 m/S 756 mmHg 71%
    20:00 +10°C° 0 mm 2 m/S 756 mmHg 72%
    21:00 +10°C° 0 mm 2 m/S 755 mmHg 72%
    22:00 +10°C° 0 mm 2 m/S 755 mmHg 72%
    23:00 +10°C° 0 mm 2 m/S 755 mmHg 73%

    Morgen, 14 Dezember, Donnerstag

    Zeit Temperatur Niederschläge Wind Luftdruck Luftfeuchtigkeit
    00:00 +11°C° 0 mm 1 m/S 755 mmHg 73%
    01:00 +11°C° 0 mm 1 m/S 754 mmHg 74%
    02:00 +10°C° 0 mm 1 m/S 754 mmHg 74%
    03:00 +10°C° 0 mm 1 m/S 754 mmHg 77%
    04:00 +9°C° 0 mm 2 m/S 754 mmHg 79%
    05:00 +9°C° 0 mm 2 m/S 754 mmHg 82%
    06:00 +8°C° 0,1 mm 2 m/S 754 mmHg 84%
    07:00 +8°C° 0,1 mm 2 m/S 754 mmHg 86%
    08:00 +8°C° 0,1 mm 3 m/S 754 mmHg 88%
    09:00 +8°C° 0 mm 4 m/S 755 mmHg 83%
    10:00 +8°C° 0 mm 4 m/S 755 mmHg 77%
    11:00 +9°C° 0 mm 5 m/S 755 mmHg 71%
    12:00 +10°C° 0 mm 5 m/S 755 mmHg 66%
    13:00 +10°C° 0 mm 5 m/S 754 mmHg 60%
    14:00 +12°C° 0 mm 5 m/S 754 mmHg 55%
    15:00 +11°C° 0 mm 4 m/S 754 mmHg 57%
    16:00 +10°C° 0 mm 4 m/S 754 mmHg 60%
    17:00 +9°C° 0 mm 3 m/S 754 mmHg 63%
    18:00 +9°C° 0 mm 3 m/S 755 mmHg 66%
    19:00 +8°C° 0 mm 3 m/S 755 mmHg 70%
    20:00 +8°C° 0 mm 3 m/S 755 mmHg 73%
    21:00 +8°C° 0 mm 3 m/S 755 mmHg 76%
    22:00 +8°C° 0 mm 3 m/S 755 mmHg 80%
    23:00 +7°C° 0 mm 3 m/S 756 mmHg 83%

    übermorgen, 15 Dezember, Freitag

    Zeit Temperatur Niederschläge Wind Luftdruck Luftfeuchtigkeit
    00:00 +7°C° 0 mm 3 m/S 756 mmHg 84%
    01:00 +7°C° 0 mm 3 m/S 756 mmHg 84%
    02:00 +7°C° 0 mm 3 m/S 756 mmHg 85%
    03:00 +7°C° 0 mm 3 m/S 755 mmHg 84%
    04:00 +7°C° 0 mm 3 m/S 755 mmHg 84%
    05:00 +7°C° 0 mm 3 m/S 755 mmHg 84%
    06:00 +7°C° 0 mm 2 m/S 755 mmHg 84%
    07:00 +7°C° 0 mm 2 m/S 755 mmHg 84%
    08:00 +7°C° 0 mm 2 m/S 755 mmHg 84%
    09:00 +8°C° 0 mm 3 m/S 755 mmHg 76%
    10:00 +10°C° 0 mm 3 m/S 755 mmHg 69%
    11:00 +12°C° 0 mm 3 m/S 755 mmHg 61%
    12:00 +13°C° 0 mm 4 m/S 754 mmHg 57%
    13:00 +14°C° 0 mm 4 m/S 754 mmHg 54%
    14:00 +15°C° 0 mm 4 m/S 753 mmHg 51%
    15:00 +14°C° 0 mm 4 m/S 753 mmHg 56%
    16:00 +13°C° 0 mm 4 m/S 753 mmHg 60%
    17:00 +12°C° 0 mm 4 m/S 753 mmHg 65%
    18:00 +11°C° 0 mm 4 m/S 753 mmHg 66%
    19:00 +11°C° 0 mm 4 m/S 753 mmHg 68%
    20:00 +11°C° 0 mm 4 m/S 753 mmHg 70%
    21:00 +10°C° 0 mm 4 m/S 752 mmHg 70%
    22:00 +10°C° 0 mm 4 m/S 752 mmHg 71%
    23:00 +10°C° 0 mm 3 m/S 752 mmHg 72%

    16 Dezember, Samstag

    Zeit Temperatur Niederschläge Wind Luftdruck Luftfeuchtigkeit
    00:00 +9°C° 0 mm 3 m/S 752 mmHg 74%
    01:00 +9°C° 0 mm 3 m/S 752 mmHg 77%
    02:00 +9°C° 0 mm 3 m/S 752 mmHg 80%
    03:00 +9°C° 0 mm 3 m/S 751 mmHg 81%
    04:00 +9°C° 0 mm 3 m/S 751 mmHg 82%
    05:00 +9°C° 0 mm 3 m/S 751 mmHg 83%
    06:00 +8°C° 0 mm 3 m/S 751 mmHg 83%
    07:00 +8°C° 0 mm 3 m/S 751 mmHg 84%
    08:00 +8°C° 0 mm 3 m/S 752 mmHg 84%
    09:00 +10°C° 0 mm 3 m/S 752 mmHg 78%
    10:00 +11°C° 0 mm 3 m/S 752 mmHg 72%
    11:00 +12°C° 0 mm 3 m/S 752 mmHg 66%
    12:00 +13°C° 0 mm 3 m/S 751 mmHg 62%
    13:00 +14°C° 0 mm 3 m/S 751 mmHg 59%
    14:00 +16°C° 0 mm 2 m/S 751 mmHg 55%
    15:00 +15°C° 0 mm 2 m/S 751 mmHg 60%
    16:00 +14°C° 0 mm 2 m/S 751 mmHg 64%
    17:00 +13°C° 0 mm 1 m/S 751 mmHg 68%
    18:00 +12°C° 0 mm 1 m/S 751 mmHg 69%
    19:00 +12°C° 0 mm 2 m/S 751 mmHg 71%
    20:00 +12°C° 0 mm 2 m/S 751 mmHg 72%
    21:00 +12°C° 0,2 mm 2 m/S 752 mmHg 74%
    22:00 +12°C° 0,2 mm 2 m/S 752 mmHg 75%
    23:00 +11°C° 0,2 mm 3 m/S 752 mmHg 77%

    17 Dezember, Sonntag

    Zeit Temperatur Niederschläge Wind Luftdruck Luftfeuchtigkeit
    00:00 +12°C° 0,7 mm 2 m/S 751 mmHg 82%
    01:00 +10°C° 0,7 mm 2 m/S 751 mmHg 86%
    02:00 +10°C° 0,7 mm 2 m/S 751 mmHg 91%
    03:00 +10°C° 1,3 mm 3 m/S 750 mmHg 91%
    04:00 +10°C° 1,3 mm 3 m/S 749 mmHg 92%
    05:00 +10°C° 1,3 mm 4 m/S 749 mmHg 93%
    06:00 +10°C° 1 mm 4 m/S 749 mmHg 93%
    07:00 +10°C° 1 mm 4 m/S 749 mmHg 93%
    08:00 +10°C° 1 mm 4 m/S 749 mmHg 93%
    09:00 +8°C° 1,6 mm 4 m/S 749 mmHg 92%
    10:00 +8°C° 1,6 mm 4 m/S 749 mmHg 91%
    11:00 +8°C° 1,6 mm 4 m/S 750 mmHg 89%
    12:00 +7°C° 0,6 mm 5 m/S 750 mmHg 88%
    13:00 +6°C° 0,6 mm 5 m/S 750 mmHg 87%
    14:00 +6°C° 0,6 mm 5 m/S 751 mmHg 86%
    15:00 +6°C° 0,2 mm 5 m/S 752 mmHg 84%
    16:00 +5°C° 0,2 mm 4 m/S 753 mmHg 82%
    17:00 +5°C° 0,2 mm 4 m/S 753 mmHg 80%
    18:00 +5°C° 0 mm 4 m/S 754 mmHg 78%
    19:00 +5°C° 0 mm 4 m/S 755 mmHg 76%
    20:00 +5°C° 0 mm 4 m/S 756 mmHg 74%
    21:00 +4°C° 0 mm 4 m/S 757 mmHg 74%
    22:00 +4°C° 0 mm 3 m/S 757 mmHg 74%
    23:00 +4°C° 0 mm 3 m/S 758 mmHg 74%

    18 Dezember, Montag

    Zeit Temperatur Niederschläge Wind Luftdruck Luftfeuchtigkeit
    00:00 +3°C° 0 mm 3 m/S 758 mmHg 74%
    01:00 +3°C° 0 mm 3 m/S 759 mmHg 75%
    02:00 +4°C° 0 mm 2 m/S 759 mmHg 75%
    03:00 +4°C° 0 mm 2 m/S 760 mmHg 76%
    04:00 +3°C° 0 mm 2 m/S 760 mmHg 77%
    05:00 +3°C° 0 mm 2 m/S 760 mmHg 78%
    06:00 +3°C° 0 mm 2 m/S 761 mmHg 78%
    07:00 +3°C° 0 mm 2 m/S 761 mmHg 78%
    08:00 +3°C° 0 mm 2 m/S 762 mmHg 78%
    09:00 +3°C° 0 mm 2 m/S 762 mmHg 76%
    10:00 +4°C° 0 mm 2 m/S 762 mmHg 74%
    11:00 +4°C° 0 mm 2 m/S 763 mmHg 72%
    12:00 +4°C° 0 mm 2 m/S 762 mmHg 71%
    13:00 +4°C° 0 mm 2 m/S 762 mmHg 70%
    14:00 +5°C° 0 mm 2 m/S 762 mmHg 69%
    15:00 +4°C° 0 mm 2 m/S 762 mmHg 71%
    16:00 +4°C° 0 mm 2 m/S 762 mmHg 73%
    17:00 +4°C° 0 mm 2 m/S 762 mmHg 74%
    18:00 +4°C° 0 mm 2 m/S 763 mmHg 75%
    19:00 +3°C° 0 mm 2 m/S 763 mmHg 76%
    20:00 +2°C° 0 mm 3 m/S 763 mmHg 77%
    21:00 +2°C° 0,1 mm 3 m/S 763 mmHg 78%
    22:00 +2°C° 0,1 mm 3 m/S 763 mmHg 79%
    23:00 0°C° 0,1 mm 4 m/S 763 mmHg 80%
    Mehr zeigen